Location: Newark
(33.6333°S, 78.8500°W)
Time: 00:04:34
(UTC+00:00)

Vanguard 2 Rocket - Visible Passes

Search period start: 19 October 2019 00:00
Search period end: 29 October 2019 00:00
Orbit: 554 x 3327 km, 32.9° (Epoch: 17 October)

Date Brightness Start Highest point End Pass type
(mag) Time Alt. Az. Time Alt. Az. Time Alt. Az.
19 Oct 9.6 06:28:29 11° ENE 06:28:29 11° ENE 06:28:51 10° ENE visible
19 Oct 7.7 08:34:20 39° NW 08:35:19 41° NNW 08:44:52 10° NE visible
20 Oct 8.3 00:54:36 10° N 00:56:14 13° N 00:56:14 13° N visible
20 Oct 8.4 07:38:37 32° NE 07:38:37 32° NE 07:43:48 10° NE visible
20 Oct 8.8 09:44:28 11° WNW 09:49:44 22° NNW 09:57:57 10° NNE visible
21 Oct 8.9 02:06:30 10° NW 02:06:32 10° NW 02:06:32 10° NW visible
21 Oct 8.3 08:48:49 26° NNW 08:49:40 27° NNW 08:57:36 10° NNE visible
22 Oct 7.5 01:07:01 10° NW 01:10:56 25° N 01:10:56 25° N visible
22 Oct 8.7 07:53:13 23° NNE 07:53:13 23° NNE 07:57:08 10° NE visible
22 Oct 9.2 10:01:04 10° NW 10:04:12 12° NNW 10:07:54 10° N visible
23 Oct 8.0 00:07:31 10° NNW 00:12:06 20° NNE 00:15:18 11° ENE visible
23 Oct 8.7 02:20:21 10° WNW 02:21:08 14° WNW 02:21:08 14° WNW visible
23 Oct 8.8 09:03:32 16° NNW 09:04:05 16° NNW 09:09:10 10° N visible
24 Oct 6.7 01:20:26 10° NW 01:25:27 42° N 01:25:27 42° N visible
24 Oct 9.2 08:08:02 14° NNE 08:08:02 14° NNE 08:09:39 10° NNE visible
25 Oct 7.4 00:20:18 10° NW 00:26:25 33° NNE 00:29:43 15° ENE visible
25 Oct 8.6 02:34:29 10° WNW 02:35:34 16° WNW 02:35:34 16° WNW visible
26 Oct 6.3 01:34:20 10° WNW 01:39:46 61° N 01:39:46 61° N visible
27 Oct 6.9 00:33:49 10° WNW 00:40:41 51° NNE 00:43:56 19° E visible
27 Oct 8.7 02:48:45 10° W 02:49:46 15° W 02:49:46 15° W visible
28 Oct 6.3 01:48:29 10° W 01:53:53 71° NW 01:53:53 71° NW visible
